Погода в Норт-Ванкувере

Канада     49°19′47″N   123°04′14″W
темп.,
°C
ветер,
м/с
пор.,
м/с
влажн.,
%
обл.,
%
осадки,
мм/ч
давл.,
гПа
погр.,
м
21 октября, чт
чт2123:00+9св348592 2.8 101681
02:00+10св358395 0.0 101487
05:00+10св2582100 0.0 1012104
08:00+10св3580100 0.0 1010104
11:00+14св3870100 0.0 1008252
14:00+13св3870100 0.0 1006178
17:00+13с2276100 0.1 100458
20:00+11сз1193100 2.7 100634
22 октября, пт
пт2223:00+11всв3698100 20.1 1007244
02:00+11вюв2794100 2.8 1008610
05:00+11вюв1299100 5.6 100788
08:00+10вюв1297100 0.6 100663
11:00+10ююв1397100 2.7 1006156
14:00+10всв1296100 3.6 1006144
17:00+10вюв2497100 5.2 1006268
20:00+9всв1297100 3.5 1006101
23 октября, сб
сб2323:00+9в239799 3.8 100697
02:00+8в259675 0.1 1007189
05:00+8св2591100 0.8 1006185
08:00+8всв2389100 0.4 1005104
11:00+8всв2391100 1.4 1005158
14:00+9св1293100 2.9 1005128
17:00+9в2494100 4.3 1005171
20:00+8в2495100 0.8 1005160
24 октября, вс
вс2423:00+8всв2392100 1.8 100498
02:00+8св248845 0.4 100294
05:00+9св368399 0.4 998122
08:00+7св3684100 0.0 993132
11:00+11всв3872100 0.0 988336
14:00+12всв4865100 0.0 984426
17:00+10св2379100 0.4 98281
20:00+9в2591100 6.4 985221
25 октября, пн
пн2523:00+9всв3884100 6.5 987440
02:00+9всв378598 0.3 988287
05:00+8св378598 0.5 988391
08:00+7св4991100 1.7 987452
11:00+9св4885100 2.5 989534
14:00+8св4888100 0.9 989545
17:00+8св4987100 3.9 989356
20:00+8св41088100 2.6 989458